| time (UTC) | temp F | wind direction | speed MPH | gust MPH | rain 1hr in | rain 24hr in | rain mn in | humidity % | barometer mb |
| 20260901224901 | 66 | 354 | 0.0 | 0.0 | 0.00 | 0.20 | 0.20 | 92 | 1044.8 |
| 20260901224358 | 66 | 354 | 0.0 | 0.0 | 0.00 | 0.20 | 0.20 | 92 | 1044.9 |
| 20260901223854 | 66 | 347 | 0.0 | 0.0 | 0.00 | 0.20 | 0.20 | 92 | 1045.0 |
| 20260901223349 | 66 | 349 | 0.0 | 0.0 | 0.00 | 0.20 | 0.20 | 92 | 1044.9 |
| 20260901222845 | 66 | 0 | 0.0 | 0.0 | 0.00 | 0.20 | 0.20 | 93 | 1044.9 |
| 20260901222341 | 66 | 345 | 0.0 | 0.0 | 0.00 | 0.20 | 0.20 | 92 | 1044.9 |
| 20260901221837 | 66 | 330 | 0.0 | 0.0 | 0.00 | 0.20 | 0.20 | 90 | 1045.0 |
| 20260901221332 | 66 | 329 | 0.0 | 0.0 | 0.00 | 0.20 | 0.20 | 91 | 1045.3 |
| 20260901220832 | 66 | 345 | 0.0 | 0.0 | 0.00 | 0.20 | 0.20 | 91 | 1045.0 |
| 20260901220331 | 66 | 345 | 0.0 | 0.0 | 0.00 | 0.20 | 0.20 | 91 | 1045.0 |
| 20260901215830 | 66 | 1 | 0.0 | 0.0 | 0.00 | 0.20 | 0.20 | 91 | 1044.9 |
| 20260901215329 | 66 | 0 | 0.0 | 0.0 | 0.00 | 0.20 | 0.20 | 91 | 1044.9 |
| 20260901214828 | 66 | 4 | 0.0 | 0.0 | 0.00 | 0.20 | 0.20 | 92 | 1044.8 |
| 20260901214327 | 66 | 349 | 0.0 | 0.0 | 0.00 | 0.20 | 0.20 | 91 | 1044.9 |
| 20260901213822 | 66 | 28 | 0.0 | 0.0 | 0.00 | 0.20 | 0.20 | 90 | 1044.7 |
| 20260901213322 | 66 | 359 | 0.0 | 0.0 | 0.00 | 0.20 | 0.20 | 90 | 1044.9 |
| 20260901212816 | 66 | 5 | 0.0 | 0.0 | 0.00 | 0.20 | 0.20 | 90 | 1044.5 |
| 20260901212312 | 67 | 350 | 1.0 | 1.0 | 0.00 | 0.20 | 0.20 | 89 | 1044.6 |
| 20260901211807 | 67 | 34 | 1.0 | 1.0 | 0.00 | 0.20 | 0.20 | 90 | 1044.2 |
| 20260901211304 | 67 | 7 | 0.0 | 0.0 | 0.00 | 0.20 | 0.20 | 90 | 1044.5 |
| 20260901210759 | 67 | 25 | 0.0 | 0.0 | 0.00 | 0.20 | 0.20 | 89 | 1044.5 |
| 20260901210254 | 67 | 14 | 0.0 | 0.0 | 0.00 | 0.20 | 0.20 | 88 | 1044.6 |
| 20260901205751 | 67 | 322 | 0.0 | 0.0 | 0.00 | 0.20 | 0.20 | 87 | 1044.6 |
| 20260901205250 | 67 | 348 | 0.0 | 0.0 | 0.00 | 0.20 | 0.20 | 87 | 1044.5 |
| 20260901204746 | 67 | 18 | 0.0 | 0.0 | 0.00 | 0.20 | 0.20 | 87 | 1044.3 |
| 20260901204242 | 67 | 3 | 0.0 | 1.0 | 0.00 | 0.20 | 0.20 | 87 | 1044.3 |
| 20260901203737 | 67 | 344 | 0.0 | 0.0 | 0.00 | 0.20 | 0.20 | 88 | 1044.1 |
| 20260901203236 | 67 | 0 | 1.0 | 1.0 | 0.00 | 0.20 | 0.20 | 87 | 1043.9 |
| 20260901202736 | 67 | 30 | 1.0 | 1.0 | 0.00 | 0.20 | 0.20 | 87 | 1043.9 |
| 20260901202232 | 67 | 28 | 1.0 | 2.0 | 0.00 | 0.20 | 0.20 | 87 | 1043.9 |
| 20260901201727 | 67 | 0 | 1.0 | 1.0 | 0.00 | 0.20 | 0.20 | 87 | 1044.2 |
| 20260901201221 | 67 | 344 | 0.0 | 1.0 | 0.00 | 0.20 | 0.20 | 86 | 1044.2 |
| 20260901200720 | 67 | 5 | 1.0 | 1.0 | 0.00 | 0.20 | 0.20 | 85 | 1044.4 |
| 20260901200216 | 67 | 42 | 1.0 | 1.0 | 0.00 | 0.20 | 0.20 | 86 | 1044.2 |
| 20260901195714 | 67 | 69 | 2.0 | 2.0 | 0.00 | 0.20 | 0.20 | 86 | 1044.2 |
| 20260901195208 | 67 | 354 | 1.0 | 2.0 | 0.00 | 0.20 | 0.20 | 86 | 1044.0 |
| 20260901194704 | 67 | 9 | 1.0 | 1.0 | 0.00 | 0.20 | 0.20 | 87 | 1044.3 |
| 20260901194158 | 67 | 2 | 1.0 | 1.0 | 0.00 | 0.20 | 0.20 | 88 | 1043.9 |
| 20260901193655 | 67 | 51 | 1.0 | 2.0 | 0.00 | 0.20 | 0.20 | 87 | 1044.0 |
| 20260901193148 | 67 | 45 | 1.0 | 2.0 | 0.00 | 0.20 | 0.20 | 87 | 1044.0 |
| 20260901192643 | 67 | 19 | 1.0 | 1.0 | 0.00 | 0.20 | 0.20 | 87 | 1044.2 |
| 20260901192138 | 67 | 345 | 1.0 | 2.0 | 0.00 | 0.20 | 0.20 | 84 | 1044.1 |
| 20260901191634 | 67 | 34 | 1.0 | 2.0 | 0.00 | 0.20 | 0.20 | 86 | 1044.1 |
| 20260901191130 | 67 | 14 | 2.0 | 2.0 | 0.00 | 0.20 | 0.20 | 87 | 1044.1 |
| 20260901190626 | 67 | 22 | 1.0 | 2.0 | 0.00 | 0.20 | 0.20 | 86 | 1044.0 |
| 20260901190125 | 67 | 316 | 1.0 | 2.0 | 0.00 | 0.20 | 0.20 | 83 | 1044.2 |
| 20260901185623 | 66 | 345 | 1.0 | 1.0 | 0.00 | 0.20 | 0.20 | 85 | 1044.3 |
| 20260901185122 | 66 | 15 | 0.0 | 1.0 | 0.00 | 0.20 | 0.20 | 85 | 1044.3 |
| 20260901184618 | 66 | 326 | 0.0 | 0.0 | 0.00 | 0.20 | 0.20 | 87 | 1044.2 |
| 20260901184113 | 66 | 5 | 1.0 | 1.0 | 0.00 | 0.20 | 0.20 | 87 | 1044.4 |
| 20260901183608 | 66 | 13 | 1.0 | 1.0 | 0.00 | 0.20 | 0.20 | 86 | 1044.2 |
| 20260901183103 | 66 | 343 | 0.0 | 1.0 | 0.00 | 0.20 | 0.20 | 86 | 1044.5 |
| 20260901182559 | 66 | 8 | 1.0 | 1.0 | 0.00 | 0.20 | 0.20 | 85 | 1044.4 |
| 20260901182054 | 66 | 1 | 0.0 | 1.0 | 0.00 | 0.20 | 0.20 | 86 | 1044.6 |
| 20260901181553 | 66 | 350 | 0.0 | 0.0 | 0.00 | 0.20 | 0.20 | 85 | 1044.5 |
| 20260901181052 | 66 | 324 | 0.0 | 0.0 | 0.00 | 0.20 | 0.20 | 85 | 1044.4 |
| 20260901180551 | 66 | 350 | 0.0 | 0.0 | 0.00 | 0.20 | 0.20 | 85 | 1044.4 |
| 20260901180046 | 66 | 348 | 0.0 | 0.0 | 0.00 | 0.20 | 0.20 | 85 | 1044.1 |
| 20260901175540 | 66 | 345 | 0.0 | 0.0 | 0.00 | 0.20 | 0.20 | 86 | 1044.3 |
| 20260901175034 | 66 | 340 | 0.0 | 0.0 | 0.00 | 0.20 | 0.20 | 85 | 1044.3 |
| 20260901174531 | 66 | 318 | 0.0 | 0.0 | 0.00 | 0.20 | 0.20 | 83 | 1044.3 |
| 20260901174026 | 66 | 342 | 0.0 | 0.0 | 0.00 | 0.20 | 0.20 | 85 | 1044.5 |
| 20260901173521 | 65 | 323 | 0.0 | 0.0 | 0.00 | 0.20 | 0.20 | 84 | 1044.4 |
| 20260901173017 | 65 | 315 | 0.0 | 0.0 | 0.00 | 0.20 | 0.20 | 86 | 1044.1 |
| 20260901172512 | 64 | 340 | 0.0 | 0.0 | 0.00 | 0.20 | 0.20 | 87 | 1044.2 |
| 20260901172010 | 64 | 329 | 0.0 | 1.0 | 0.00 | 0.20 | 0.20 | 88 | 1044.1 |
| 20260901171509 | 64 | 12 | 1.0 | 1.0 | 0.00 | 0.20 | 0.20 | 89 | 1044.3 |
| 20260901171008 | 64 | 359 | 0.0 | 0.0 | 0.00 | 0.20 | 0.20 | 91 | 1044.2 |
| 20260901170503 | 64 | 6 | 1.0 | 1.0 | 0.00 | 0.20 | 0.20 | 91 | 1044.2 |
| 20260901170003 | 65 | 315 | 0.0 | 0.0 | 0.00 | 0.20 | 0.20 | 89 | 1044.0 |
| 20260901165457 | 65 | 323 | 0.0 | 0.0 | 0.00 | 0.20 | 0.20 | 87 | 1044.1 |
| 20260901164953 | 65 | 338 | 0.0 | 0.0 | 0.00 | 0.20 | 0.20 | 89 | 1044.1 |
| 20260901164448 | 65 | 62 | 1.0 | 2.0 | 0.00 | 0.20 | 0.20 | 89 | 1044.0 |
| 20260901163943 | 64 | 9 | 0.0 | 0.0 | 0.00 | 0.20 | 0.20 | 91 | 1044.1 |
| 20260901163438 | 63 | 325 | 0.0 | 0.0 | 0.00 | 0.20 | 0.20 | 94 | 1044.1 |
| 20260901162937 | 63 | 324 | 0.0 | 0.0 | 0.00 | 0.20 | 0.20 | 95 | 1044.1 |
| 20260901162432 | 63 | 354 | 0.0 | 0.0 | 0.00 | 0.20 | 0.20 | 94 | 1044.0 |
| 20260901161926 | 63 | 338 | 0.0 | 0.0 | 0.00 | 0.20 | 0.20 | 96 | 1044.1 |
| 20260901161425 | 62 | 347 | 0.0 | 0.0 | 0.00 | 0.20 | 0.20 | 95 | 1044.0 |
| 20260901160921 | 62 | 347 | 0.0 | 0.0 | 0.00 | 0.20 | 0.20 | 96 | 1044.2 |
| 20260901160416 | 62 | 344 | 0.0 | 0.0 | 0.00 | 0.20 | 0.20 | 95 | 1044.6 |
| 20260901155916 | 62 | 323 | 0.0 | 0.0 | 0.00 | 0.20 | 0.20 | 95 | 1044.5 |
| 20260901155416 | 62 | 323 | 0.0 | 0.0 | 0.00 | 0.20 | 0.20 | 96 | 1044.4 |
| 20260901154913 | 62 | 323 | 0.0 | 0.0 | 0.00 | 0.20 | 0.20 | 96 | 1044.5 |
| 20260901154411 | 61 | 323 | 0.0 | 0.0 | 0.00 | 0.20 | 0.20 | 96 | 1044.5 |
| 20260901153907 | 61 | 343 | 0.0 | 0.0 | 0.00 | 0.20 | 0.20 | 97 | 1044.8 |
| 20260901153406 | 60 | 334 | 0.0 | 0.0 | 0.00 | 0.20 | 0.20 | 97 | 1044.6 |
| 20260901152900 | 60 | 328 | 0.0 | 0.0 | 0.00 | 0.20 | 0.20 | 98 | 1044.6 |
| 20260901152355 | 60 | 312 | 0.0 | 1.0 | 0.00 | 0.20 | 0.20 | 99 | 1044.7 |
| 20260901151849 | 60 | 345 | 0.0 | 0.0 | 0.00 | 0.20 | 0.20 | 98 | 1044.7 |
| 20260901151344 | 60 | 355 | 0.0 | 0.0 | 0.00 | 0.20 | 0.20 | 99 | 1044.8 |
| 20260901150843 | 60 | 319 | 0.0 | 0.0 | 0.00 | 0.20 | 0.20 | 99 | 1044.6 |
| 20260901150341 | 61 | 334 | 0.0 | 0.0 | 0.00 | 0.20 | 0.20 | 99 | 1044.8 |
| 20260901145838 | 61 | 336 | 0.0 | 0.0 | 0.00 | 0.20 | 0.20 | 99 | 1044.6 |
| 20260901145333 | 60 | 330 | 0.0 | 0.0 | 0.00 | 0.20 | 0.20 | 99 | 1044.8 |
| 20260901144828 | 60 | 326 | 0.0 | 0.0 | 0.00 | 0.20 | 0.20 | 99 | 1045.0 |
| 20260901144324 | 60 | 336 | 0.0 | 0.0 | 0.00 | 0.20 | 0.20 | 99 | 1044.8 |
| 20260901143819 | 60 | 336 | 0.0 | 0.0 | 0.00 | 0.20 | 0.20 | 99 | 1044.9 |
| 20260901143316 | 60 | 326 | 0.0 | 0.0 | 0.00 | 0.20 | 0.20 | 99 | 1044.6 |
| 20260901142812 | 60 | 311 | 1.0 | 1.0 | 0.00 | 0.20 | 0.20 | 99 | 1044.6 |
| 20260901142310 | 60 | 335 | 0.0 | 0.0 | 0.00 | 0.20 | 0.20 | 99 | 1044.5 |
| 20260901141806 | 60 | 327 | 0.0 | 0.0 | 0.07 | 0.20 | 0.20 | 99 | 1044.4 |
| 20260901141301 | 59 | 324 | 0.0 | 0.0 | 0.07 | 0.20 | 0.20 | 99 | 1044.3 |
| 20260901140759 | 59 | 323 | 0.0 | 0.0 | 0.00 | 0.19 | 0.19 | 99 | 1044.3 |
| 20260901140258 | 59 | 317 | 1.0 | 1.0 | 0.00 | 0.19 | 0.19 | 99 | 1044.3 |
| 20260901135753 | 59 | 322 | 0.0 | 1.0 | 0.00 | 0.19 | 0.19 | 99 | 1044.4 |
| 20260901135253 | 59 | 322 | 0.0 | 1.0 | 0.00 | 0.19 | 0.19 | 99 | 1044.1 |
| 20260901134750 | 59 | 319 | 0.0 | 0.0 | 0.00 | 0.19 | 0.19 | 99 | 1044.4 |
| 20260901134248 | 59 | 307 | 0.0 | 0.0 | 0.00 | 0.19 | 0.19 | 99 | 1044.3 |
| 20260901133743 | 58 | 323 | 0.0 | 0.0 | 0.05 | 0.19 | 0.19 | 99 | 1044.4 |
| 20260901133243 | 58 | 325 | 0.0 | 0.0 | 0.05 | 0.19 | 0.19 | 99 | 1044.4 |
| 20260901132741 | 58 | 340 | 0.0 | 0.0 | 0.00 | 0.18 | 0.18 | 99 | 1044.6 |
| 20260901132236 | 58 | 327 | 0.0 | 0.0 | 0.00 | 0.18 | 0.18 | 99 | 1044.8 |
| 20260901131731 | 58 | 320 | 0.0 | 0.0 | 0.00 | 0.18 | 0.18 | 99 | 1044.9 |
| 20260901131230 | 58 | 323 | 0.0 | 0.0 | 0.00 | 0.18 | 0.18 | 99 | 1044.7 |
| 20260901130726 | 58 | 326 | 0.0 | 0.0 | 0.00 | 0.18 | 0.18 | 99 | 1044.6 |
| 20260901130225 | 57 | 319 | 0.0 | 0.0 | 0.00 | 0.18 | 0.18 | 99 | 1044.7 |
| 20260901125722 | 57 | 327 | 0.0 | 0.0 | 0.00 | 0.18 | 0.18 | 99 | 1044.8 |
| 20260901125218 | 57 | 323 | 0.0 | 0.0 | 0.00 | 0.18 | 0.18 | 99 | 1044.7 |
| 20260901124712 | 57 | 349 | 0.0 | 0.0 | 0.07 | 0.18 | 0.18 | 99 | 1044.8 |
| 20260901124207 | 57 | 325 | 0.0 | 0.0 | 0.07 | 0.18 | 0.18 | 99 | 1045.0 |
| 20260901123707 | 57 | 326 | 0.0 | 0.0 | 0.07 | 0.18 | 0.18 | 99 | 1045.3 |
| 20260901123202 | 57 | 341 | 0.0 | 0.0 | 0.00 | 0.17 | 0.17 | 99 | 1045.3 |
| 20260901122700 | 57 | 341 | 0.0 | 0.0 | 0.00 | 0.17 | 0.17 | 99 | 1045.0 |
| 20260901122154 | 57 | 322 | 0.0 | 0.0 | 0.07 | 0.17 | 0.17 | 99 | 1044.9 |
| 20260901121649 | 57 | 322 | 0.0 | 0.0 | 0.12 | 0.17 | 0.17 | 99 | 1045.0 |
| 20260901121145 | 57 | 322 | 0.0 | 0.0 | 0.12 | 0.16 | 0.16 | 99 | 1045.3 |
| 20260901120644 | 57 | 326 | 0.0 | 0.0 | 0.12 | 0.15 | 0.15 | 99 | 1045.0 |
| 20260901120140 | 57 | 333 | 0.0 | 0.0 | 0.05 | 0.14 | 0.14 | 99 | 1045.0 |
| 20260901115635 | 57 | 333 | 0.0 | 0.0 | 0.07 | 0.13 | 0.13 | 99 | 1045.2 |
| 20260901115131 | 57 | 334 | 0.0 | 0.0 | 0.00 | 0.12 | 0.12 | 99 | 1045.2 |
| 20260901114628 | 57 | 334 | 0.0 | 0.0 | 0.05 | 0.12 | 0.12 | 99 | 1044.9 |
| 20260901114126 | 57 | 335 | 0.0 | 0.0 | 0.12 | 0.12 | 0.12 | 99 | 1044.9 |
| 20260901113625 | 57 | 325 | 0.0 | 0.0 | 0.12 | 0.11 | 0.11 | 99 | 1045.2 |
| 20260901113121 | 57 | 325 | 0.0 | 0.0 | 0.05 | 0.10 | 0.10 | 99 | 1045.3 |
| 20260901112615 | 57 | 324 | 0.0 | 0.0 | 0.05 | 0.10 | 0.10 | 99 | 1045.4 |
| 20260901112109 | 57 | 323 | 0.0 | 0.0 | 0.07 | 0.09 | 0.09 | 99 | 1045.5 |
| 20260901111609 | 57 | 336 | 0.0 | 0.0 | 0.12 | 0.09 | 0.09 | 99 | 1045.4 |
| 20260901111107 | 57 | 325 | 0.0 | 0.0 | 0.12 | 0.08 | 0.08 | 99 | 1045.2 |
| 20260901110603 | 57 | 327 | 0.0 | 0.0 | 0.07 | 0.07 | 0.07 | 98 | 1045.2 |
| 20260901110058 | 57 | 325 | 0.0 | 0.0 | 0.05 | 0.06 | 0.06 | 98 | 1045.0 |
| 20260901105555 | 57 | 327 | 0.0 | 0.0 | 0.19 | 0.06 | 0.06 | 98 | 1044.7 |
| 20260901105048 | 57 | 319 | 0.0 | 0.0 | 0.19 | 0.05 | 0.05 | 98 | 1044.6 |
| 20260901104545 | 57 | 326 | 0.0 | 0.0 | 0.19 | 0.04 | 0.04 | 98 | 1044.7 |
| 20260901104040 | 57 | 324 | 0.0 | 0.0 | 0.07 | 0.02 | 0.02 | 97 | 1044.6 |
| 20260901103534 | 58 | 325 | 0.0 | 0.0 | 0.05 | 0.01 | 0.01 | 97 | 1044.5 |
| 20260901103030 | 58 | 338 | 0.0 | 0.0 | 0.05 | 0.01 | 0.01 | 97 | 1044.6 |
| 20260901102530 | 58 | 330 | 0.0 | 0.0 | 0.00 | 0.00 | 0.00 | 96 | 1044.5 |
| 20260901102024 | 58 | 346 | 0.0 | 0.0 | 0.00 | 0.00 | 0.00 | 96 | 1044.4 |
| 20260901101520 | 58 | 324 | 0.0 | 0.0 | 0.00 | 0.00 | 0.00 | 96 | 1044.3 |
| 20260901101019 | 58 | 322 | 0.0 | 0.0 | 0.00 | 0.00 | 0.00 | 95 | 1044.0 |
| 20260901100514 | 58 | 323 | 0.0 | 0.0 | 0.00 | 0.00 | 0.00 | 95 | 1044.1 |
| 20260901100014 | 58 | 10 | 0.0 | 0.0 | 0.00 | 0.00 | 0.00 | 95 | 1044.2 |
| 20260901095512 | 58 | 329 | 0.0 | 0.0 | 0.00 | 0.00 | 0.00 | 95 | 1044.1 |
| 20260901095010 | 58 | 332 | 0.0 | 0.0 | 0.00 | 0.00 | 0.00 | 95 | 1043.9 |
| 20260901094505 | 58 | 339 | 0.0 | 0.0 | 0.00 | 0.00 | 0.00 | 95 | 1043.9 |
| 20260901094004 | 58 | 3 | 0.0 | 0.0 | 0.00 | 0.00 | 0.00 | 95 | 1044.1 |
| 20260901093504 | 58 | 324 | 0.0 | 0.0 | 0.00 | 0.00 | 0.00 | 95 | 1044.3 |
| 20260901092959 | 58 | 325 | 0.0 | 0.0 | 0.00 | 0.00 | 0.00 | 95 | 1044.5 |
| 20260901092455 | 58 | 325 | 0.0 | 0.0 | 0.00 | 0.00 | 0.00 | 95 | 1044.3 |
| 20260901091951 | 58 | 334 | 0.0 | 0.0 | 0.00 | 0.00 | 0.00 | 95 | 1044.2 |
| 20260901091446 | 58 | 351 | 0.0 | 0.0 | 0.00 | 0.00 | 0.00 | 95 | 1044.3 |
| 20260901090941 | 58 | 326 | 0.0 | 0.0 | 0.00 | 0.00 | 0.00 | 95 | 1044.3 |
| 20260901090440 | 58 | 326 | 0.0 | 0.0 | 0.00 | 0.00 | 0.00 | 95 | 1044.3 |
| 20260901085936 | 58 | 322 | 0.0 | 0.0 | 0.00 | 0.00 | 0.00 | 95 | 1044.1 |
| 20260901085432 | 58 | 322 | 0.0 | 0.0 | 0.00 | 0.00 | 0.00 | 95 | 1044.1 |
| 20260901084928 | 58 | 332 | 0.0 | 0.0 | 0.00 | 0.00 | 0.00 | 96 | 1044.1 |
| 20260901084424 | 58 | 332 | 0.0 | 0.0 | 0.00 | 0.00 | 0.00 | 96 | 1044.3 |
| 20260901083920 | 58 | 328 | 0.0 | 0.0 | 0.00 | 0.00 | 0.00 | 96 | 1044.2 |
| 20260901083414 | 58 | 329 | 0.0 | 0.0 | 0.00 | 0.00 | 0.00 | 96 | 1044.4 |
| 20260901082912 | 58 | 329 | 0.0 | 0.0 | 0.00 | 0.00 | 0.00 | 96 | 1044.4 |
| 20260901082408 | 58 | 328 | 0.0 | 0.0 | 0.00 | 0.00 | 0.00 | 96 | 1044.4 |
| 20260901081902 | 58 | 346 | 0.0 | 0.0 | 0.00 | 0.00 | 0.00 | 96 | 1044.6 |
| 20260901081357 | 58 | 339 | 0.0 | 0.0 | 0.00 | 0.00 | 0.00 | 96 | 1044.3 |
| 20260901080857 | 58 | 318 | 0.0 | 0.0 | 0.00 | 0.00 | 0.00 | 95 | 1044.4 |
| 20260901080351 | 58 | 339 | 0.0 | 0.0 | 0.00 | 0.00 | 0.00 | 95 | 1044.2 |
| 20260901075845 | 58 | 334 | 0.0 | 0.0 | 0.00 | 0.00 | 0.00 | 95 | 1044.5 |
| 20260901075341 | 58 | 314 | 0.0 | 0.0 | 0.00 | 0.00 | 0.00 | 95 | 1044.6 |
| 20260901074830 | 58 | 314 | 0.0 | 0.0 | 0.00 | 0.00 | 0.00 | 95 | 1044.6 |
| 20260901074325 | 58 | 314 | 0.0 | 0.0 | 0.00 | 0.00 | 0.00 | 95 | 1044.5 |
| 20260901073821 | 58 | 314 | 0.0 | 0.0 | 0.00 | 0.00 | 0.00 | 95 | 1044.4 |
| 20260901073316 | 58 | 314 | 0.0 | 0.0 | 0.00 | 0.00 | 0.00 | 95 | 1044.3 |
| 20260901072812 | 58 | 314 | 0.0 | 0.0 | 0.00 | 0.00 | 0.00 | 95 | 1044.2 |
| 20260901072311 | 58 | 314 | 0.0 | 0.0 | 0.00 | 0.00 | 0.00 | 95 | 1044.5 |
| 20260901071807 | 58 | 314 | 0.0 | 0.0 | 0.00 | 0.00 | 0.00 | 95 | 1044.5 |
| 20260901071305 | 58 | 314 | 0.0 | 0.0 | 0.00 | 0.00 | 0.00 | 95 | 1044.5 |
| 20260901070804 | 58 | 314 | 0.0 | 0.0 | 0.00 | 0.00 | 0.00 | 95 | 1044.7 |
| 20260901070300 | 58 | 314 | 0.0 | 0.0 | 0.00 | 0.00 | 0.00 | 94 | 1044.7 |
| 20260901065759 | 58 | 314 | 0.0 | 0.0 | 0.00 | 0.00 | 0.00 | 95 | 1044.7 |
| 20260901065254 | 58 | 314 | 0.0 | 0.0 | 0.00 | 0.00 | 0.00 | 94 | 1044.7 |
| 20260901064750 | 58 | 314 | 0.0 | 0.0 | 0.00 | 0.00 | 0.00 | 94 | 1044.7 |
| 20260901064246 | 58 | 314 | 0.0 | 0.0 | 0.00 | 0.00 | 0.00 | 94 | 1044.8 |
| 20260901063744 | 58 | 314 | 0.0 | 0.0 | 0.00 | 0.00 | 0.00 | 94 | 1044.8 |
| 20260901063239 | 58 | 314 | 0.0 | 0.0 | 0.00 | 0.00 | 0.00 | 94 | 1044.9 |
| 20260901062735 | 58 | 314 | 0.0 | 0.0 | 0.00 | 0.00 | 0.00 | 94 | 1044.8 |
| 20260901062231 | 58 | 314 | 0.0 | 0.0 | 0.00 | 0.00 | 0.00 | 94 | 1044.9 |
| 20260901061727 | 58 | 314 | 0.0 | 0.0 | 0.00 | 0.00 | 0.00 | 94 | 1044.8 |
| 20260901061226 | 58 | 314 | 0.0 | 0.0 | 0.00 | 0.00 | 0.00 | 94 | 1045.2 |
| 20260901060722 | 58 | 314 | 0.0 | 0.0 | 0.00 | 0.00 | 0.00 | 94 | 1045.0 |
| 20260901060217 | 58 | 314 | 0.0 | 0.0 | 0.00 | 0.00 | 0.00 | 94 | 1044.9 |
| 20260901055712 | 58 | 314 | 0.0 | 0.0 | 0.00 | 0.00 | 0.00 | 94 | 1045.0 |
| 20260901055209 | 58 | 314 | 0.0 | 0.0 | 0.00 | 0.00 | 0.00 | 95 | 1045.5 |
| 20260901054706 | 58 | 314 | 0.0 | 0.0 | 0.00 | 0.00 | 0.00 | 95 | 1045.2 |
| 20260901054202 | 58 | 314 | 0.0 | 0.0 | 0.00 | 0.00 | 0.00 | 95 | 1045.3 |
| 20260901053657 | 57 | 314 | 0.0 | 0.0 | 0.00 | 0.00 | 0.00 | 95 | 1045.4 |
| 20260901053153 | 57 | 314 | 0.0 | 0.0 | 0.00 | 0.00 | 0.00 | 95 | 1045.3 |
| 20260901052648 | 57 | 314 | 0.0 | 0.0 | 0.00 | 0.00 | 0.00 | 95 | 1045.2 |
| 20260901052143 | 58 | 314 | 0.0 | 0.0 | 0.00 | 0.00 | 0.00 | 95 | 1045.2 |
| 20260901051642 | 58 | 314 | 0.0 | 0.0 | 0.00 | 0.00 | 0.00 | 95 | 1045.4 |
| 20260901051142 | 58 | 314 | 0.0 | 0.0 | 0.00 | 0.00 | 0.00 | 95 | 1045.6 |
| 20260901050637 | 58 | 314 | 0.0 | 0.0 | 0.00 | 0.00 | 0.00 | 94 | 1045.6 |
| 20260901050132 | 58 | 314 | 0.0 | 0.0 | 0.00 | 0.00 | 0.00 | 94 | 1045.4 |
| 20260901045627 | 58 | 314 | 0.0 | 0.0 | 0.00 | 0.00 | 0.00 | 94 | 1045.5 |
| 20260901045122 | 58 | 314 | 0.0 | 0.0 | 0.00 | 0.00 | 0.00 | 94 | 1045.3 |
| 20260901044618 | 58 | 314 | 0.0 | 0.0 | 0.00 | 0.00 | 0.00 | 94 | 1045.5 |
| 20260901044114 | 58 | 315 | 0.0 | 0.0 | 0.00 | 0.00 | 0.00 | 94 | 1045.4 |
| 20260901043609 | 58 | 315 | 0.0 | 0.0 | 0.00 | 0.00 | 0.00 | 94 | 1045.4 |
| 20260901043104 | 58 | 314 | 0.0 | 0.0 | 0.00 | 0.00 | 0.00 | 93 | 1045.5 |
| 20260901042603 | 58 | 314 | 0.0 | 0.0 | 0.00 | 0.00 | 0.00 | 93 | 1045.2 |
| 20260901042059 | 58 | 314 | 0.0 | 0.0 | 0.00 | 0.00 | 0.00 | 93 | 1045.4 |
| 20260901041554 | 58 | 314 | 0.0 | 0.0 | 0.00 | 0.00 | 0.00 | 93 | 1045.4 |
| 20260901041049 | 59 | 315 | 0.0 | 0.0 | 0.00 | 0.00 | 0.00 | 93 | 1045.2 |
| 20260901040548 | 59 | 315 | 0.0 | 0.0 | 0.00 | 0.00 | 0.00 | 93 | 1045.0 |
| 20260901040043 | 59 | 314 | 0.0 | 0.0 | 0.00 | 0.00 | 0.00 | 92 | 1044.9 |
| 20260901035541 | 59 | 315 | 0.0 | 0.0 | 0.00 | 0.00 | 0.00 | 92 | 1045.0 |
| 20260901035039 | 59 | 315 | 0.0 | 0.0 | 0.00 | 0.00 | 0.00 | 92 | 1045.0 |
| 20260901034534 | 59 | 315 | 0.0 | 0.0 | 0.00 | 0.00 | 0.00 | 92 | 1045.2 |
| 20260901034029 | 59 | 314 | 0.0 | 0.0 | 0.00 | 0.00 | 0.00 | 91 | 1045.2 |
| 20260901033527 | 59 | 314 | 0.0 | 0.0 | 0.00 | 0.00 | 0.00 | 91 | 1045.2 |
| 20260901033022 | 59 | 314 | 0.0 | 0.0 | 0.00 | 0.00 | 0.00 | 91 | 1045.2 |
| 20260901032520 | 59 | 314 | 0.0 | 0.0 | 0.00 | 0.00 | 0.00 | 91 | 1045.2 |
| 20260901032016 | 59 | 314 | 0.0 | 0.0 | 0.00 | 0.00 | 0.00 | 91 | 1045.2 |
| 20260901031511 | 59 | 314 | 0.0 | 0.0 | 0.00 | 0.00 | 0.00 | 90 | 1045.3 |
| 20260901031007 | 59 | 314 | 0.0 | 0.0 | 0.00 | 0.00 | 0.00 | 91 | 1045.0 |
| 20260901030507 | 59 | 314 | 0.0 | 0.0 | 0.00 | 0.00 | 0.00 | 90 | 1045.3 |
| 20260901030001 | 60 | 314 | 0.0 | 0.0 | 0.00 | 0.00 | 0.00 | 90 | 1045.0 |
| 20260901025455 | 60 | 314 | 0.0 | 0.0 | 0.00 | 0.00 | 0.00 | 90 | 1045.3 |
| 20260901024955 | 60 | 314 | 0.0 | 0.0 | 0.00 | 0.00 | 0.00 | 90 | 1045.0 |
| 20260901024450 | 60 | 315 | 0.0 | 0.0 | 0.00 | 0.00 | 0.00 | 89 | 1045.2 |
| 20260901023948 | 60 | 315 | 0.0 | 0.0 | 0.00 | 0.00 | 0.00 | 89 | 1045.3 |
| 20260901023443 | 60 | 315 | 0.0 | 0.0 | 0.00 | 0.00 | 0.00 | 89 | 1045.4 |
| 20260901022938 | 60 | 314 | 0.0 | 0.0 | 0.00 | 0.00 | 0.00 | 89 | 1045.5 |
| 20260901022433 | 60 | 314 | 0.0 | 0.0 | 0.00 | 0.00 | 0.00 | 88 | 1045.3 |
| 20260901021928 | 61 | 314 | 0.0 | 0.0 | 0.00 | 0.00 | 0.00 | 88 | 1045.0 |
| 20260901021424 | 61 | 314 | 0.0 | 0.0 | 0.00 | 0.00 | 0.00 | 87 | 1045.2 |
| 20260901020919 | 61 | 314 | 0.0 | 0.0 | 0.00 | 0.00 | 0.00 | 87 | 1045.2 |
| 20260901020415 | 61 | 314 | 0.0 | 0.0 | 0.00 | 0.00 | 0.00 | 87 | 1045.3 |
| 20260901015913 | 61 | 314 | 0.0 | 0.0 | 0.00 | 0.00 | 0.00 | 87 | 1045.3 |
| 20260901015410 | 61 | 314 | 0.0 | 0.0 | 0.00 | 0.00 | 0.00 | 87 | 1045.3 |
| 20260901014909 | 62 | 314 | 0.0 | 0.0 | 0.00 | 0.00 | 0.00 | 87 | 1045.2 |
| 20260901014406 | 62 | 314 | 0.0 | 0.0 | 0.00 | 0.00 | 0.00 | 87 | 1045.2 |
| 20260901013901 | 62 | 314 | 0.0 | 0.0 | 0.00 | 0.00 | 0.00 | 86 | 1045.2 |
| 20260901013356 | 62 | 315 | 0.0 | 0.0 | 0.00 | 0.00 | 0.00 | 86 | 1045.3 |
| 20260901012852 | 63 | 315 | 0.0 | 0.0 | 0.00 | 0.00 | 0.00 | 85 | 1045.2 |
| 20260901012347 | 63 | 315 | 0.0 | 0.0 | 0.00 | 0.00 | 0.00 | 85 | 1045.2 |
| 20260901011843 | 63 | 314 | 0.0 | 0.0 | 0.00 | 0.00 | 0.00 | 85 | 1045.4 |
| 20260901011338 | 63 | 315 | 0.0 | 0.0 | 0.00 | 0.00 | 0.00 | 84 | 1045.3 |
| 20260901010831 | 64 | 315 | 0.0 | 0.0 | 0.00 | 0.00 | 0.00 | 83 | 1045.3 |
| 20260901010326 | 64 | 315 | 0.0 | 0.0 | 0.00 | 0.00 | 0.00 | 83 | 1045.0 |
| 20260901005825 | 64 | 316 | 0.0 | 0.0 | 0.00 | 0.00 | 0.00 | 83 | 1044.9 |
| 20260901005320 | 64 | 316 | 0.0 | 0.0 | 0.00 | 0.00 | 0.00 | 83 | 1045.0 |
| 20260901004814 | 64 | 315 | 0.0 | 0.0 | 0.00 | 0.00 | 0.00 | 81 | 1044.9 |
| 20260901004308 | 64 | 315 | 0.0 | 0.0 | 0.00 | 0.00 | 0.00 | 81 | 1045.4 |
| 20260901003803 | 65 | 315 | 0.0 | 0.0 | 0.00 | 0.00 | 0.00 | 81 | 1045.3 |
| 20260901003258 | 65 | 315 | 0.0 | 0.0 | 0.00 | 0.00 | 0.00 | 81 | 1045.5 |
| 20260901002756 | 65 | 315 | 0.0 | 0.0 | 0.00 | 0.00 | 0.00 | 80 | 1045.3 |
| 20260901002252 | 65 | 315 | 0.0 | 0.0 | 0.00 | 0.00 | 0.00 | 80 | 1044.9 |
| 20260901001747 | 65 | 315 | 0.0 | 0.0 | 0.00 | 0.00 | 0.00 | 80 | 1045.2 |
| 20260901001242 | 65 | 314 | 0.0 | 0.0 | 0.00 | 0.00 | 0.00 | 80 | 1045.0 |
| 20260901000737 | 65 | 325 | 0.0 | 0.0 | 0.00 | 0.00 | 0.00 | 78 | 1045.0 |
| 20260901000233 | 66 | 326 | 0.0 | 0.0 | 0.00 | 0.00 | 0.00 | 77 | 1045.2 |
| 20260831235726 | 66 | 326 | 0.0 | 0.0 | 0.00 | 0.00 | 0.00 | 76 | 1045.2 |
| 20260831235222 | 66 | 326 | 0.0 | 0.0 | 0.00 | 0.00 | 0.00 | 74 | 1045.3 |
| 20260831234721 | 66 | 326 | 0.0 | 0.0 | 0.00 | 0.00 | 0.00 | 72 | 1045.4 |
| 20260831234216 | 67 | 326 | 0.0 | 0.0 | 0.00 | 0.00 | 0.00 | 74 | 1045.2 |
| 20260831233711 | 67 | 326 | 0.0 | 0.0 | 0.00 | 0.00 | 0.00 | 73 | 1045.4 |
| 20260831233207 | 68 | 326 | 0.0 | 0.0 | 0.00 | 0.00 | 0.00 | 74 | 1045.4 |
| 20260831232706 | 68 | 326 | 0.0 | 0.0 | 0.00 | 0.00 | 0.00 | 72 | 1045.3 |
| 20260831232203 | 68 | 326 | 0.0 | 0.0 | 0.00 | 0.00 | 0.00 | 72 | 1045.3 |
| 20260831231659 | 69 | 326 | 0.0 | 0.0 | 0.00 | 0.00 | 0.00 | 71 | 1045.3 |
| 20260831231155 | 69 | 326 | 0.0 | 0.0 | 0.00 | 0.00 | 0.00 | 69 | 1045.4 |
| 20260831230654 | 69 | 326 | 0.0 | 0.0 | 0.00 | 0.00 | 0.00 | 71 | 1045.3 |
| 20260831230150 | 69 | 325 | 0.0 | 0.0 | 0.00 | 0.00 | 0.00 | 70 | 1045.3 |
| 20260831225649 | 70 | 325 | 0.0 | 0.0 | 0.00 | 0.00 | 0.00 | 68 | 1045.6 |
| 20260831225144 | 70 | 325 | 0.0 | 0.0 | 0.00 | 0.00 | 0.00 | 68 | 1045.5 |